• Currently

    Reported at Minneapolis, Minneapolis-St. Paul International Airport, MN
    3:53 AM CST SUN MAR 26 2017
  • 37°F3°C
  • Drizzle
    Drizzle
  • Feels Like:33°F0°CDew Point:34°F1°CHumidity:87% Winds:E 7 mph 11 kph
    Pressure:29.94 in1014 hPaVisibility:7.00 miles11263.00 meters
Time Weather Temp Dew Point
Humidity Winds Visibility Pressure Precipitation
1 hr 24 hr
Saturday, March 25
23:53 23:53 Cloudy Cloudy 39°F4°C 31°F-1°C 73% ENE 10 mphENE 17 kph 10.0 miles16.1 km 30.18 in1022 hPa 0.00 in0.00 mm --
23:09 23:09 Cloudy Cloudy 39°F4°C 32°F0°C 76% E 13 mphE 20 kph 10.0 miles16.1 km 30.18 in1022 hPa 0.00 in0.00 mm --
22:53 22:53 Cloudy Cloudy 40°F4°C 33°F1°C 77% ENE 13 mphENE 20 kph 10.0 miles16.1 km 30.18 in1022 hPa 0.00 in0.00 mm --
22:20 22:20 Cloudy Cloudy 39°F4°C 34°F1°C 81% ENE 12 mphENE 19 kph 10.0 miles16.1 km 30.18 in1022 hPa 0.00 in0.00 mm --
21:53 21:53 Cloudy Cloudy 40°F4°C 33°F1°C 77% NE 12 mphNE 19 kph 10.0 miles16.1 km 30.18 in1022 hPa 0.00 in0.00 mm --
20:53 20:53 Cloudy Cloudy 40°F4°C 33°F1°C 77% NE 13 mphNE 20 kph 10.0 miles16.1 km 30.18 in1022 hPa 0.00 in0.00 mm --
20:12 20:12 Cloudy Cloudy 39°F4°C 34°F1°C 81% NNE 13 mphNNE 20 kph 10.0 miles16.1 km 30.18 in1022 hPa 0.00 in0.00 mm --
19:53 19:53 Cloudy Cloudy 41°F5°C 33°F1°C 73% NNE 13 mphNNE 20 kph 10.0 miles16.1 km 30.15 in1021 hPa 0.00 in0.00 mm --
18:53 18:53 Cloudy Cloudy 42°F6°C 34°F1°C 73% NNE 12 mphNNE 19 kph 10.0 miles16.1 km 30.12 in1020 hPa 0.00 in0.00 mm --
17:53 17:53 Cloudy Cloudy 43°F6°C 34°F1°C 71% NNE 12 mphNNE 19 kph 10.0 miles16.1 km 30.12 in1020 hPa 0.00 in0.00 mm --
16:53 16:53 Cloudy Cloudy 44°F7°C 35°F2°C 71% NNE 14 mphNNE 22 kph 10.0 miles16.1 km 30.09 in1019 hPa 0.00 in0.00 mm --
15:53 15:53 Cloudy Cloudy 45°F7°C 36°F2°C 71% N 13 mphN 20 kph 9.0 miles14.5 km 30.06 in1018 hPa 0.00 in0.00 mm --
14:53 14:53 Cloudy Cloudy 45°F7°C 36°F2°C 71% N 12 mphN 19 kph 10.0 miles16.1 km 30.09 in1019 hPa 0.00 in0.00 mm --
14:47 14:47 Cloudy Cloudy 45°F7°C 36°F2°C 71% NNE 13 mphNNE 20 kph 10.0 miles16.1 km 30.06 in1018 hPa 0.00 in0.00 mm --
13:53 13:53 Cloudy Cloudy 44°F7°C 35°F2°C 71% NE 10 mphNE 17 kph 10.0 miles16.1 km 30.06 in1018 hPa 0.00 in0.00 mm --
13:40 13:40 Cloudy Cloudy 43°F6°C 36°F2°C 76% NE 13 mphNE 20 kph 10.0 miles16.1 km 30.06 in1018 hPa 0.00 in0.00 mm --
13:19 13:19 Cloudy Cloudy 43°F6°C 35°F2°C 74% NNE 14 mphNNE 22 kph 9.0 miles14.5 km 30.06 in1018 hPa 0.00 in0.00 mm --
13:01 13:01 Cloudy Cloudy 42°F6°C 35°F2°C 76% N 12 mphN 19 kph 9.0 miles14.5 km 30.06 in1018 hPa 0.00 in0.00 mm --
12:53 12:53 Cloudy Cloudy 42°F6°C 35°F2°C 76% N 13 mphN 20 kph 9.0 miles14.5 km 30.06 in1018 hPa 0.00 in0.00 mm --
12:10 12:10 Cloudy Cloudy 41°F5°C 36°F2°C 81% NNE 15 mphNNE 24 kph 8.0 miles12.9 km 30.03 in1017 hPa 0.00 in0.00 mm --
11:53 11:53 Cloudy Cloudy 40°F4°C 35°F2°C 83% NE 13 mphNE 20 kph 9.0 miles14.5 km 30.03 in1017 hPa 0.00 in0.00 mm --
10:53 10:53 Cloudy With Mist And Fog Cloudy With Mist And Fog 39°F4°C 35°F2°C 86% N 10 mphN 17 kph 6.0 miles9.7 km 30 in1016 hPa 0.00 in0.00 mm --
10:21 10:21 Cloudy Cloudy 39°F4°C 35°F2°C 86% NNE 10 mphNNE 17 kph 7.0 miles11.3 km 30 in1016 hPa 0.00 in0.00 mm --
10:03 10:03 Cloudy Cloudy 39°F4°C 36°F2°C 87% N 12 mphN 19 kph 7.0 miles11.3 km 29.97 in1015 hPa 0.00 in0.00 mm --
09:53 09:53 Cloudy Cloudy 39°F4°C 35°F2°C 86% N 9 mphN 15 kph 7.0 miles11.3 km 29.97 in1015 hPa 0.00 in0.00 mm --
09:33 09:33 Cloudy Cloudy 39°F4°C 35°F2°C 86% NNE 9 mphNNE 15 kph 7.0 miles11.3 km 29.97 in1015 hPa 0.00 in0.00 mm --
08:53 08:53 Cloudy With Mist And Fog Cloudy With Mist And Fog 38°F3°C 35°F2°C 89% NNE 12 mphNNE 19 kph 6.0 miles9.7 km 29.91 in1013 hPa 0.00 in0.03 mm --
07:53 07:53 Cloudy With Light Drizzle Cloudy With Light Drizzle 38°F3°C 35°F2°C 89% N 8 mphN 13 kph 4.0 miles6.4 km 29.91 in1013 hPa 0.00 in0.03 mm --
07:12 07:12 Cloudy With Mist And Fog Cloudy With Mist And Fog 37°F3°C 36°F2°C 93% NNE 9 mphNNE 15 kph 3.0 miles4.8 km 29.91 in1013 hPa 0.00 in0.00 mm --
06:53 06:53 Cloudy With Mist And Fog Cloudy With Mist And Fog 38°F3°C 36°F2°C 93% N 9 mphN 15 kph 2.5 miles4.0 km 29.88 in1012 hPa 0.00 in0.00 mm --
06:39 06:39 Cloudy With Mist And Fog Cloudy With Mist And Fog 38°F3°C 36°F2°C 93% N 10 mphN 17 kph 2.5 miles4.0 km 29.91 in1013 hPa 0.00 in0.00 mm --
06:20 06:20 Cloudy With Mist And Fog Cloudy With Mist And Fog 37°F3°C 36°F2°C 93% N 8 mphN 13 kph 2.5 miles4.0 km 29.88 in1012 hPa 0.00 in0.00 mm --
06:15 06:15 Cloudy With Mist And Fog Cloudy With Mist And Fog 38°F3°C 36°F2°C 93% N 8 mphN 13 kph 2.5 miles4.0 km 29.88 in1012 hPa 0.00 in0.00 mm --
05:53 05:53 Cloudy With Mist And Fog Cloudy With Mist And Fog 39°F4°C 36°F2°C 89% NNE 7 mphNNE 11 kph 4.0 miles6.4 km 29.88 in1012 hPa 0.00 in0.00 mm --
04:53 04:53 Cloudy With Mist And Fog Cloudy With Mist And Fog 39°F4°C 36°F2°C 89% N 7 mphN 11 kph 6.0 miles9.7 km 29.85 in1011 hPa 0.00 in0.00 mm --
04:34 04:34 Cloudy With Mist And Fog Cloudy With Mist And Fog 39°F4°C 36°F2°C 87% ENE 3 mphENE 6 kph 6.0 miles9.7 km 29.83 in1010 hPa 0.00 in0.00 mm --
03:53 03:53 Cloudy With Mist And Fog Cloudy With Mist And Fog 39°F4°C 36°F2°C 89% E 6 mphE 9 kph 6.0 miles9.7 km 29.83 in1010 hPa 0.01 in6.45 mm --
02:53 02:53 Cloudy With Mist And Fog Cloudy With Mist And Fog 39°F4°C 36°F2°C 89% SE 7 mphSE 11 kph 5.0 miles8.0 km 29.85 in1011 hPa 0.00 in0.00 mm --
01:53 01:53 Cloudy With Mist And Fog Cloudy With Mist And Fog 39°F4°C 36°F2°C 89% ENE 6 mphENE 9 kph 5.0 miles8.0 km 29.85 in1011 hPa 0.00 in0.03 mm --
00:53 00:53 Cloudy With Light Rain Cloudy With Light Rain 39°F4°C 36°F2°C 89% ENE 5 mphENE 7 kph 3.0 miles4.8 km 29.88 in1012 hPa 0.03 in19.35 mm --
00:18 00:18 Cloudy With Light Rain Cloudy With Light Rain 37°F3°C 36°F2°C 93% ENE 6 mphENE 9 kph 3.0 miles4.8 km 29.88 in1012 hPa 0.00 in0.00 mm --